Retour au catalogue

SIRIUS 1

ActifCommunicationsMEO
NORAD 26390·PAYLOAD·🇺🇸 United States

Lancé Jun 30, 2000 depuis Baikonur Cosmodrome

Loading…

Prochains Passages (prochaines 24 heures)

TLE

FraisSource: Space-Track

Époque: Sep 14, 2026, 09:58 UTC

1 26390U 00035A   26257.41547481  .00000002  00000-0  00000-0 0  9996
2 26390  59.3845 158.1265 0002345   7.8074 174.0124  1.57877252 73276

Suivez SIRIUS 1 en temps réel avec AllMySat

Download on the App Store